Regional Weather Roundup
Issued by NWS

Home | Current Version | Previous Version | Text Only | Print | Product List | Glossary On
Versions: 1 2 3 4 5 6 7 8 9 10 11 12 13 14 15 16 17 18 19 20 21 22 23 24 25 26 27 28 29 30 31 32 33 34 35 36 37 38 39 40 41 42 43 44 45 46 47 48 49 50
000
ASUS43 KBIS 210620
RWRND

NORTH DAKOTA REGIONAL WEATHER ROUNDUP
NATIONAL WEATHER SERVICE BISMARCK ND
100 AM CDT SUN SEP 21 2014

NOTE: "FAIR" INDICATES FEW OR NO CLOUDS BELOW 12,000 FEET WITH NO
SIGNIFICANT WEATHER AND/OR OBSTRUCTIONS TO VISIBILITY.


NDZ001>003-009>011-017-210700-
NORTHWEST NORTH DAKOTA

CITY           SKY/WX    TMP DP  RH WIND       PRES   REMARKS
WILLISTON      CLEAR     52  37  56 W10       30.20R
6HR MIN TEMP:  51; 6HR MAX TEMP:  69;

MINOT          CLEAR     54  40  59 W14       30.12R
MINOT AFB      CLEAR     51  44  77 NW10      30.12R
$$

NDZ018>021-031>035-040>046-210700-
SOUTHWEST NORTH DAKOTA

CITY           SKY/WX    TMP DP  RH WIND       PRES   REMARKS
BISMARCK       CLEAR     55  41  59 NW9       30.15R
6HR MIN TEMP:  55; 6HR MAX TEMP:  69;

DICKINSON      CLEAR     47  35  63 W6        30.21R
GARRISON         N/A     51  41  68 NW10      30.14R
6HR MIN TEMP:  51; 6HR MAX TEMP:  67;

HETTINGER ARPT CLEAR     41  34  76 W8        30.24R
$$

NDZ004>008-012>016-024-026-027-054-210700-
NORTHEAST NORTH DAKOTA

CITY           SKY/WX    TMP DP  RH WIND       PRES   REMARKS
GRAND FORKS    CLOUDY    54  50  86 NW7       29.98R
GRND FRKS AFB  CLOUDY    53  51  94 N8        30.00R
DEVILS LAKE    PTCLDY    54  45  71 W9        30.04R
$$

NDZ022-023-025-028>030-036>039-047>053-210700-
SOUTHEAST NORTH DAKOTA

CITY           SKY/WX    TMP DP  RH WIND       PRES   REMARKS
FARGO          CLOUDY    55  49  80 NW10      29.99R
6HR MIN TEMP:  53; 6HR MAX TEMP:  65; 6HR PCP: TRACE;

JAMESTOWN      MOCLDY    56  46  69 NW12      30.06R
$$




USA.gov is the U.S. government's official web portal to all federal, state and local government web resources and services.